User: anonymous   Login
Location: Unspecified
(0.0000°N, 0.0000°E)
Time: 18:57:05
(UTC+00:00)
Language:

Transit VE-3 - Orbit

View from above orbital plane
View from above orbital plane
View from above satellite
View from above satellite

Ground track
Ground track

The orbit data is extracted from the following two-line orbital elements,

1   705U 63049C   19341.55353182  .00000034  00000-0  40053-4 0  9997
2   705  89.9068  92.3056 0032187 272.0510  99.3119 13.47339991751663
Epoch (UTC): 07 December 2019 13:17:05
Eccentricity: 0.0032187
inclination: 89.9068°
perigee height: 1058 km
apogee height: 1106 km
right ascension of ascending node: 92.3056°
argument of perigee: 272.0510°
revolutions per day: 13.47339991
mean anomaly at epoch: 99.3119°
orbit number at epoch: 75166

The dashed part of the orbit path shows where the satellite is in the earth's shadow,  

DLR